CAPE
981 882 798 485 197 135 349 573 653 575 447 302 79 30 59 132 27 6 0 0 0 0 0 0 0 0 0 0 0 0 0 1 1 124 513 728 929 1052 1158 1255 1267 1213 1124 1022 901 905 1047 1270 1640 2002 2253 2429 2453 2355 2127 2066 2209 2296 2358 2404 2412 2393 2333 2091 1805 1666 1638 1634 1627 1628 1633 1675 1952 2190
815 747 687 446 195 111 302 410 515 533 150 92 77 54 26 130 30 10 4 0 0 0 0 0 0 0 0 0 0 0 0 0 0 0 58 470 972 1064 1045 1028 1030 1068 1091 1065 957 832 797 841 975 1300 1715 2045 2287 2353 2252 2012 1811 1988 2143 2220 2234 2213 2183 2151 2062 1930 1796 1704 1656 1623 1584 1586 1629 1741
872 758 644 512 331 146 254 294 431 234 75 1 26 17 27 63 39 1 6 2 0 0 0 0 0 0 0 0 0 0 0 0 0 0 0 29 298 769 950 1034 1086 1089 1042 967 933 909 854 848 903 1004 1196 1492 1797 2043 2088 2020 1844 1562 1713 1914 2048 2082 2051 1987 1944 1928 1928 1902 1834 1711 1615 1573 1569 1605
894 679 419 370 378 104 151 265 101 0 0 0 0 0 0 0 0 0 1 3 0 0 0 0 0 0 0 0 0 0 0 0 0 0 1 1 113 194 574 839 900 958 988 970 906 870 877 885 892 956 1058 1212 1468 1722 1896 1912 1828 1656 1442 1541 1728 1846 1878 1877 1850 1831 1845 1892 1886 1796 1674 1574 1557 1585
652 434 309 198 167 160 117 201 102 66 123 0 0 0 0 0 0 0 0 0 2 0 0 0 0 0 0 0 0 0 0 0 0 0 1 7 39 145 385 632 779 852 867 830 768 728 723 758 804 856 937 1007 1057 1154 1282 1380 1453 1500 1475 1393 1361 1464 1560 1641 1688 1710 1739 1770 1760 1726 1668 1628 1625 1633
337 304 282 231 183 197 130 19 12 0 0 93 6 0 0 0 0 0 0 0 4 2 0 0 0 0 0 0 0 0 0 0 0 0 0 1 54 240 456 652 753 824 856 825 734 634 571 538 559 598 694 831 988 1080 1042 973 999 1144 1335 1409 1409 1341 1286 1347 1416 1477 1521 1527 1533 1534 1559 1616 1656 1643
348 250 62 154 208 212 139 14 74 0 0 0 0 0 0 0 0 0 0 0 1 2 1 0 0 0 0 0 0 0 0 0 0 0 0 0 13 90 302 524 644 758 855 897 868 790 655 473 526 591 732 880 915 887 870 880 1020 1123 1205 1370 1412 1377 1269 1179 1188 1230 1261 1290 1316 1343 1388 1444 1467 1453
227 171 192 263 300 283 162 21 0 0 0 0 96 56 0 0 0 0 0 0 0 2 3 0 0 0 0 0 0 0 0 0 0 0 0 1 5 17 37 156 380 554 675 786 882 945 953 901 813 772 809 798 819 1024 1264 1334 1347 1262 1230 1253 1338 1319 1247 1194 1145 1148 1147 1144 1139 1131 1166 1187 1177 1165
79 172 209 210 222 244 204 170 0 0 0 0 0 0 0 0 0 0 0 0 0 2 4 2 0 0 0 0 0 0 0 0 0 0 5 9 10 5 5 19 105 252 419 540 612 670 753 832 912 1002 1090 1123 1141 1175 1209 1243 1334 1365 1316 1250 1251 1191 1136 1120 1132 1120 1082 1048 1007 974 951 922 898 854
11 26 104 141 228 260 198 23 0 0 0 0 0 0 0 0 110 0 0 0 1 2 5 5 2 0 0 0 0 0 0 0 1 1 0 2 11 42 46 59 133 255 368 422 446 506 558 577 608 682 829 995 1050 996 1023 1220 1328 1322 1280 1226 1175 1116 1084 1040 1003 981 940 881 807 775 744 728 706 676
92 117 168 220 262 215 0 0 0 0 0 0 0 0 0 3 179 16 0 136 28 8 5 3 2 0 0 0 0 0 0 0 4 15 13 7 4 38 76 88 125 218 316 398 480 506 474 438 442 515 704 856 960 1008 1043 1117 1174 1226 1251 1241 1204 1161 1129 1103 1064 981 886 795 504 0 0 0 0 0
162 208 214 72 0 0 0 0 0 0 0 0 0 0 0 134 250 266 228 158 59 12 3 3 2 0 0 0 0 0 0 2 0 10 33 14 3 2 13 64 117 166 309 419 518 600 630 604 565 539 553 694 873 936 918 894 955 1051 1132 1190 1182 1132 1130 1124 1074 991 898 790 657 0 0 0 0 0
167 6 2 1 0 62 180 4 0 0 0 0 0 0 237 268 302 325 279 176 55 5 2 1 0 0 0 0 0 0 2 3 3 2 4 9 5 4 4 2 50 178 275 381 534 633 695 758 767 761 764 785 799 814 902 1029 1110 1170 1233 1256 1165 1054 1053 1035 1013 969 881 810 749 640 0 0 0 0
89 0 0 60 406 290 185 360 418 261 420 402 368 352 344 397 417 424 323 174 54 2 1 1 1 2 1 0 0 1 6 3 1 1 8 13 6 6 7 3 0 59 266 334 347 420 603 735 818 862 859 874 869 902 966 1035 1082 1162 1247 1290 1238 1099 1019 954 924 877 825 819 852 863 727 381 174 0
36 15 0 124 365 639 575 578 528 478 446 465 454 430 451 540 576 546 419 244 78 4 0 0 1 1 6 3 6 19 25 23 25 20 16 19 19 23 21 7 0 103 232 329 316 288 370 551 642 717 833 902 844 785 762 769 877 1138 1264 1320 1279 1116 956 898 901 856 814 907 1046 1109 957 690 539 316
8 20 237 297 312 362 408 440 457 448 446 449 466 503 590 692 712 635 537 327 107 4 0 0 0 0 12 18 20 37 35 24 21 22 22 21 16 12 12 11 12 181 374 283 282 262 288 379 478 542 615 691 706 683 631 577 603 754 1048 1285 1305 1142 949 866 924 1020 1081 1180 1255 1242 1061 852 583 440
236 256 314 336 327 359 433 590 470 384 322 322 376 508 646 690 681 653 528 254 64 25 0 0 0 2 28 46 52 69 87 41 35 20 21 17 20 17 16 8 5 0 122 369 327 297 307 306 313 308 376 492 647 749 738 714 681 670 753 922 993 982 918 869 976 1102 1091 1210 1296 1232 1110 844 628 466
316 347 349 352 442 520 480 267 5 6 9 17 426 574 648 663 622 443 171 22 0 0 0 0 0 43 69 90 82 102 87 80 66 38 18 15 18 19 16 4 2 0 10 48 131 249 320 391 400 346 371 437 585 724 796 828 851 884 965 1000 959 833 721 756 887 929 1021 1185 1163 1117 996 777 447 0
356 356 458 582 639 657 612 506 359 22 13 419 573 670 627 361 0 0 0 8 7 0 13 94 113 107 110 112 100 84 68 57 50 51 37 22 20 16 14 15 4 4 7 34 34 22 153 317 520 542 570 602 661 760 876 917 913 931 964 959 946 803 599 586 665 912 1106 1081 941 841 768 539 111 0
388 628 703 703 697 689 712 555 225 4 461 629 587 149 0 0 0 0 0 0 3 3 81 132 134 120 112 103 96 90 77 50 26 16 14 11 13 11 7 4 2 11 0 16 31 31 134 227 490 565 664 666 658 731 886 1017 1083 1094 1092 1068 992 830 730 736 912 1134 1054 729 535 460 420 346 0 0
670 586 558 584 649 712 593 13 0 211 549 0 0 0 0 0 0 0 0 1 2 0 77 79 77 111 112 79 86 92 70 46 36 24 17 10 3 8 2 5 5 1 0 4 29 29 41 114 340 554 630 625 617 672 870 1074 1210 1244 1245 1233 1161 1100 1072 1127 1277 1211 852 156 0 0 0 0 0 234
404 286 586 970 778 76 0 0 8 403 0 0 0 0 0 0 0 60 102 57 7 0 100 85 84 140 102 69 79 73 51 32 15 21 26 17 18 11 7 4 3 3 0 0 17 67 18 98 348 581 728 754 739 735 873 1060 1203 1306 1370 1371 1364 1342 1299 1280 1239 1144 995 531 0 0 0 0 188 321
0 0 8 12 0 0 0 0 0 0 0 0 0 0 0 0 50 144 1 2 1 0 28 82 113 104 60 88 82 101 40 14 1 4 48 39 20 20 15 10 6 4 1 0 42 72 77 206 282 574 654 693 786 893 933 992 1096 1214 1300 1361 1414 1415 1421 1393 1308 1188 1038 812 315 0 0 0 185 310
0 0 0 0 0 0 0 0 0 0 0 0 0 0 0 0 156 1 1 1 0 0 1 5 31 54 27 25 24 20 19 23 37 16 19 28 30 26 16 17 11 4 0 0 85 125 167 315 344 460 480 458 467 574 821 1029 1121 1133 1132 1165 1214 1334 1429 1479 1465 1413 1347 1206 981 690 384 0 10 123
0 0 0 0 0 0 0 0 0 0 0 0 0 0 0 0 1 1 0 0 0 4 13 20 16 11 17 8 7 10 0 8 16 11 10 26 28 28 24 10 8 8 4 20 258 240 261 357 388 421 497 392 358 790 818 771 899 1015 1064 1064 1075 1147 1271 1424 1557 1622 1594 1577 1512 1411 1244 1037 778 515
0 0 0 0 0 0 0 0 0 0 0 0 140 21 0 0 0 0 1 2 5 3 2 1 14 12 6 0 1 1 2 2 14 1 7 16 17 15 12 11 9 8 5 1 263 414 345 356 360 353 422 453 410 436 669 829 898 917 942 985 1007 1039 1057 1189 1406 1562 1707 1705 1699 1678 1602 1471 1308 1219
0 0 0 0 0 0 0 0 0 0 0 95 0 0 0 0 0 0 0 3 1 1 2 2 14 3 0 0 2 2 0 1 3 0 6 22 16 8 5 5 4 4 1 21 175 417 429 368 418 335 341 413 417 383 372 473 652 882 986 1002 988 994 1029 1044 1092 1206 1381 1558 1686 1682 1644 1603 1595 1606
0 0 0 0 0 0 0 0 0 0 0 0 0 0 0 0 0 0 0 0 0 6 3 13 10 0 0 2 2 5 6 13 11 0 12 23 12 1 1 2 5 2 2 37 258 299 443 374 460 394 361 378 351 319 378 381 420 574 742 798 1025 1112 1200 1264 1340 1343 1366 1368 1399 1468 1498 1583 1593 1685
0 0 0 0 0 0 0 0 0 0 0 0 0 12 0 0 0 0 0 1 6 5 5 4 3 1 1 2 6 7 6 23 17 0 0 12 6 8 1 0 34 99 8 48 318 391 528 467 404 566 484 366 361 362 340 420 428 426 520 623 715 976 1144 1212 1295 1436 1504 1516 1535 1438 1418 1442 1548 1521
0 0 0 0 0 0 112 305 0 4 0 0 0 10 7 0 0 0 0 0 3 3 5 6 5 3 3 2 0 3 2 21 18 5 9 30 9 129 139 200 228 214 68 54 210 385 498 584 517 640 666 539 457 425 442 423 337 360 384 437 504 496 642 933 1106 1166 1268 1406 1443 1497 1439 1379 1377 1462
0 0 0 0 37 46 0 83 253 205 0 0 0 0 0 0 0 0 0 0 1 4 4 5 5 4 3 3 2 0 0 0 18 12 14 118 157 267 401 391 377 203 45 101 155 157 338 502 540 587 549 706 626 634 628 494 452 423 393 446 445 570 533 625 826 908 1000 1070 1183 1240 1302 1354 1468 1519
0 0 0 0 112 3 0 32 0 0 0 0 0 0 0 0 0 0 0 0 0 0 3 7 6 3 3 3 2 1 0 0 30 19 25 158 156 239 399 438 324 135 146 161 170 248 622 408 276 252 492 545 497 706 755 788 750 608 524 394 471 509 609 622 608 619 648 778 892 1064 1184 1342 1496 1610
0 0 0 0 0 0 0 0 0 0 0 0 0 0 0 0 0 0 0 0 0 0 1 2 3 4 4 3 2 1 0 0 42 39 21 8 197 74 36 214 352 264 140 65 88 130 392 452 434 331 344 436 584 609 559 758 729 632 483 323 378 535 608 514 510 477 460 439 644 920 1143 1208 1372 1500
0 0 0 0 0 0 0 0 0 0 0 0 0 0 0 0 0 0 0 0 0 0 0 0 0 0 2 2 1 2 2 0 58 56 44 20 104 105 16 249 172 314 229 186 127 4 240 481 484 407 371 353 363 402 395 460 458 409 333 353 328 373 345 387 384 437 500 493 644 863 1021 1193 1268 1252
0 0 1 1 1 0 0 0 0 0 0 0 0 0 0 0 0 0 0 0 0 0 0 0 0 0 0 0 0 2 2 2 26 44 54 28 19 115 51 22 34 10 257 183 175 182 114 279 267 298 212 192 116 171 378 420 391 338 404 357 453 399 354 280 410 441 521 605 666 833 937 984 873 646
7 0 2 5 7 2 0 0 0 0 0 0 0 0 0 0 0 0 0 0 0 0 0 0 0 0 0 0 0 0 1 1 0 0 8 29 22 25 47 28 24 88 3 55 194 191 188 184 308 245 183 24 173 121 222 312 362 388 388 365 306 324 302 309 349 420 432 498 678 784 834 802 696 508
2 0 7 12 4 0 0 0 0 0 0 0 0 0 0 0 0 0 0 0 0 0 0 0 0 0 0 0 0 0 0 1 1 0 1 27 46 4 19 23 33 25 63 32 42 206 254 259 251 246 150 131 136 0 104 164 249 233 274 391 426 389 438 415 383 344 334 374 544 653 710 743 725 614
7 8 9 8 5 0 0 0 0 0 0 0 0 0 0 0 0 0 0 0 0 0 0 0 0 0 0 0 0 0 0 0 0 0 0 8 27 22 2 11 29 7 14 26 33 65 158 218 259 188 107 187 191 129 129 31 206 209 219 311 399 430 393 356 315 286 265 266 325 353 390 490 583 658
11 7 6 6 1 0 0 0 0 0 0 0 0 0 0 0 0 0 0 0 0 0 0 0 0 0 0 0 0 0 0 0 0 0 0 8 18 19 24 7 13 12 19 8 0 0 64 169 185 198 3 104 258 224 214 184 91 1 206 318 297 310 310 265 255 245 254 250 255 324 375 365 440 518
12 4 6 11 2 0 0 0 0 0 0 0 0 0 0 0 0 0 0 0 0 0 0 0 0 0 0 0 0 0 0 0 0 0 0 2 24 22 19 30 26 9 0 40 40 28 46 2 157 209 174 195 225 189 148 34 1 0 174 148 172 124 142 240 285 284 305 257 223 220 276 303 372 421
4 0 0 0 0 0 0 0 0 0 0 0 0 0 0 0 0 0 0 0 0 0 0 0 0 0 0 0 0 0 0 0 0 0 0 0 12 44 19 24 36 14 5 1 2 15 16 12 26 0 76 114 119 111 92 66 56 58 124 59 0 0 6 82 200 242 232 216 194 243 262 305 356 363
0 0 0 0 0 0 1 2 1 0 0 0 0 0 0 0 0 0 0 0 0 0 0 0 0 0 0 0 0 0 0 0 0 0 0 0 0 21 37 19 17 26 14 11 8 34 37 15 4 0 0 33 151 112 77 107 86 20 21 4 0 0 0 21 47 73 137 186 181 154 192 249 263 327
0 0 0 0 0 0 1 1 1 0 0 0 0 0 0 0 0 0 0 0 0 0 0 0 0 0 0 0 0 0 0 0 0 0 0 0 0 5 17 24 24 27 29 35 36 35 9 2 6 14 0 2 4 22 21 30 32 22 10 1 0 0 1 2 6 4 4 0 0 10 57 137 122 154
0 0 0 0 0 0 0 2 0 0 0 0 0 0 0 0 0 0 0 0 0 0 0 0 0 0 0 0 0 0 0 0 0 0 0 0 0 1 11 25 29 34 36 26 35 37 37 29 15 28 37 32 34 12 8 17 14 9 7 8 2 0 0 0 0 0 0 0 117 158 204 187 166 172
0 0 0 0 1 1 0 1 0 0 0 0 0 0 0 0 0 0 0 0 0 0 0 0 0 0 0 0 0 0 0 0 0 0 0 0 0 1 3 12 24 28 19 24 40 42 48 52 53 50 51 60 64 66 49 50 40 2 3 10 4 0 0 0 0 1 0 40 36 102 149 211 257 234
Wind_Speed
42 44 46 47 46 45 45 43 42 40 39 37 nan nan nan 34 nan nan nan nan nan nan nan nan nan nan nan nan nan nan nan nan nan 41 40 38 38 36 33 30 28 26 25 24 23 22 20 20 20 21 22 22 22 22 21 20 20 19 19 20 19 19 18 17 16 15 13 12 11 10 9 8 8 6
44 45 45 46 45 44 45 43 41 39 37 nan nan nan nan 38 nan nan nan nan nan nan nan nan nan nan nan nan nan nan nan nan nan nan nan 40 39 35 34 33 30 27 26 25 24 23 21 20 20 22 23 23 23 23 23 22 21 21 20 20 20 20 20 20 19 17 16 15 13 12 11 10 9 9
44 45 45 45 45 44 43 41 40 38 nan nan nan nan nan nan nan nan nan nan nan nan nan nan nan nan nan nan nan nan nan nan nan nan nan nan 37 34 37 34 32 30 27 26 25 24 22 21 22 23 23 24 24 24 24 24 23 23 22 22 22 22 22 22 21 20 19 18 16 15 14 12 12 11
43 44 43 43 44 43 42 40 39 nan nan nan nan nan nan nan nan nan nan nan nan nan nan nan nan nan nan nan nan nan nan nan nan nan nan nan 37 39 40 37 34 31 29 27 27 26 24 23 23 22 22 23 24 24 25 25 25 25 24 24 23 23 23 23 23 22 21 20 19 18 16 15 14 13
44 45 45 44 44 43 41 39 39 nan 38 nan nan nan nan nan nan nan nan nan nan nan nan nan nan nan nan nan nan nan nan nan nan nan nan nan nan 40 41 41 37 33 31 29 29 28 27 25 24 23 21 22 23 23 24 25 26 26 26 25 25 24 24 24 24 24 23 22 21 19 18 17 17 17
43 44 44 43 43 42 39 nan nan nan nan nan nan nan nan nan nan nan nan nan nan nan nan nan nan nan nan nan nan nan nan nan nan nan nan nan nan 42 42 42 42 37 35 33 31 30 29 27 26 25 23 22 22 23 24 24 25 26 27 27 26 26 26 26 26 26 25 24 23 21 20 19 19 19
43 43 nan 43 42 40 37 nan nan nan nan nan nan nan nan nan nan nan nan nan nan nan nan nan nan nan nan nan nan nan nan nan nan nan nan nan nan nan 42 42 43 40 38 36 34 32 31 30 28 27 25 24 23 23 24 24 24 26 27 28 27 27 27 27 28 27 26 26 25 23 22 21 21 21
43 43 42 41 41 38 35 nan nan nan nan nan nan nan nan nan nan nan nan nan nan nan nan nan nan nan nan nan nan nan nan nan nan nan nan nan nan nan nan 42 42 41 38 39 38 35 33 30 29 28 27 25 24 24 23 23 23 24 27 28 28 27 27 28 29 28 28 27 26 25 24 23 22 22
nan 42 42 41 39 37 34 32 nan nan nan nan nan nan nan nan nan nan nan nan nan nan nan nan nan nan nan nan nan nan nan nan nan nan nan nan nan nan nan nan 41 38 36 37 37 37 35 31 28 28 28 26 25 24 24 23 22 23 24 27 27 27 27 28 29 30 29 29 28 27 26 26 25 24
nan nan 40 40 38 36 35 nan nan nan nan nan nan nan nan nan 32 nan nan nan nan nan nan nan nan nan nan nan nan nan nan nan nan nan nan nan nan nan nan nan 42 43 44 46 45 42 39 34 29 29 29 27 24 24 24 23 21 21 22 24 25 26 27 29 29 30 30 30 30 29 28 28 27 26
nan 39 39 39 38 37 nan nan nan nan nan nan nan nan nan nan 32 nan nan 30 nan nan nan nan nan nan nan nan nan nan nan nan nan nan nan nan nan nan nan nan 43 44 43 42 40 43 44 40 37 33 30 29 25 23 24 24 22 22 21 22 22 23 25 27 29 30 30 30 30 nan nan nan nan nan
36 37 38 nan nan nan nan nan nan nan nan nan nan nan nan 31 32 31 30 30 nan nan nan nan nan nan nan nan nan nan nan nan nan nan nan nan nan nan nan nan 43 44 44 45 47 46 44 41 37 34 35 33 30 26 26 25 25 22 22 21 21 21 23 25 28 30 30 30 30 nan nan nan nan nan
35 nan nan nan nan nan 34 nan nan nan nan nan nan nan 33 33 33 32 32 31 nan nan nan nan nan nan nan nan nan nan nan nan nan nan nan nan nan nan nan nan nan 43 44 46 47 47 47 45 44 44 45 43 37 32 26 29 25 24 23 22 22 22 22 24 25 28 29 30 31 31 nan nan nan nan
nan nan nan nan 35 35 33 32 30 29 29 31 33 32 33 34 34 34 33 32 nan nan nan nan nan nan nan nan nan nan nan nan nan nan nan nan nan nan nan nan nan nan 44 45 45 46 47 46 44 45 44 44 43 41 37 34 32 30 26 24 24 24 24 24 25 26 28 30 31 31 31 31 32 nan
nan nan nan 36 35 34 32 31 29 28 28 28 31 32 32 34 36 35 34 33 nan nan nan nan nan nan nan nan nan nan nan nan nan nan nan nan nan nan nan nan nan 45 43 45 46 45 47 46 43 43 43 42 44 42 37 32 30 29 28 27 25 25 25 25 25 26 27 29 30 31 31 30 31 31
nan nan 33 35 36 35 34 33 32 29 28 28 28 30 32 32 34 36 38 35 33 nan nan nan nan nan nan nan nan nan nan nan nan nan nan nan nan nan nan nan nan 48 48 46 46 45 47 48 44 42 42 42 42 40 35 31 31 29 28 28 28 26 25 25 25 25 27 28 30 30 30 29 29 30
32 34 34 34 34 35 31 32 32 31 30 28 28 30 31 32 35 36 37 39 nan nan nan nan nan nan nan nan nan nan nan nan nan nan nan nan nan nan nan nan nan nan 48 46 45 44 47 50 46 42 41 42 43 39 33 28 29 29 29 28 28 27 26 26 25 25 26 28 28 29 29 28 28 29
34 36 37 34 33 33 34 33 nan nan nan nan 30 31 32 33 33 34 36 nan nan nan nan nan nan nan nan nan nan 21 nan nan nan nan nan nan nan nan nan nan nan nan nan nan 46 45 46 49 47 42 41 43 43 41 35 28 27 29 29 29 28 28 27 26 26 26 26 26 27 27 27 27 28 nan
36 37 37 35 33 32 32 32 33 nan nan 31 31 31 31 32 nan nan nan nan nan nan nan nan 39 35 32 26 nan nan nan nan nan nan nan nan nan nan nan nan nan nan nan nan nan nan 45 50 47 43 43 45 44 44 40 33 30 30 30 29 29 28 27 27 27 26 25 25 26 26 26 27 27 nan
37 37 37 35 33 33 32 29 29 nan 32 33 32 31 nan nan nan nan nan nan nan nan nan 38 38 36 33 27 nan nan nan nan nan nan nan nan nan nan nan nan nan nan nan nan nan nan 45 49 47 44 45 47 45 45 45 40 33 32 30 30 29 28 28 28 27 26 25 25 25 26 26 27 nan nan
36 37 36 34 33 32 32 nan nan 33 36 nan nan nan nan nan nan nan nan nan nan nan nan nan nan 32 31 nan nan nan nan nan nan nan nan nan nan nan nan nan nan nan nan nan nan nan nan 46 46 45 47 47 44 44 44 44 39 33 32 31 30 30 29 29 28 26 25 24 nan nan nan nan nan 27
35 34 31 32 34 nan nan nan nan 36 nan nan nan nan nan nan nan nan 32 nan nan nan nan nan nan 30 29 nan nan nan nan nan nan nan nan nan nan nan nan nan nan nan nan nan nan nan nan nan 47 46 51 50 46 43 43 42 42 37 35 33 32 31 30 29 28 27 25 24 nan nan nan nan 30 33
nan nan nan nan nan nan nan nan nan nan nan nan nan nan nan nan nan 29 nan nan nan nan nan nan 30 30 nan nan nan 26 nan nan nan nan nan nan nan nan nan nan nan nan nan nan nan nan nan 44 46 47 52 50 47 43 41 42 42 43 43 42 39 32 31 29 29 27 25 24 24 nan nan nan 33 33
nan nan nan nan nan nan nan nan nan nan nan nan nan nan nan nan 26 nan nan nan nan nan nan nan nan nan nan nan nan nan nan nan nan nan nan nan nan nan nan nan nan nan nan nan nan 42 44 45 46 47 47 50 47 45 42 42 42 42 44 44 43 36 33 32 32 27 26 25 25 26 27 nan nan 33
nan nan nan nan nan nan nan nan nan nan nan nan nan nan nan nan nan nan nan nan nan nan nan nan nan nan nan nan nan nan nan nan nan nan nan nan nan nan nan nan nan nan nan nan 47 43 44 47 46 49 48 48 49 47 46 44 43 42 43 43 41 41 41 38 39 37 32 27 27 26 26 27 26 27
nan nan nan nan nan nan nan nan nan nan nan nan 33 nan nan nan nan nan nan nan nan nan nan nan nan nan nan nan nan nan nan nan nan nan nan nan nan nan nan nan nan nan nan nan 43 43 44 46 46 48 49 48 48 48 48 46 44 43 44 44 41 42 41 41 41 38 37 35 34 30 27 25 25 24
nan nan nan nan nan nan nan nan nan nan nan nan nan nan nan nan nan nan nan nan nan nan nan nan nan nan nan nan nan nan nan nan nan nan nan nan nan nan nan nan nan nan nan nan 45 43 43 46 48 46 47 46 46 48 45 43 44 46 46 44 44 45 43 42 39 37 41 38 34 30 30 28 26 25
nan nan nan nan nan nan nan nan nan nan nan nan nan nan nan nan nan nan nan nan nan nan nan nan nan nan nan nan nan nan nan nan nan nan nan nan nan nan nan nan nan nan nan nan 45 40 42 44 47 46 45 47 46 44 41 44 46 43 44 47 46 45 43 40 40 41 41 41 43 39 37 34 29 28
nan nan nan nan nan nan nan nan nan nan nan nan nan nan nan nan nan nan nan nan nan nan nan nan nan nan nan nan nan nan nan nan nan nan nan nan nan nan nan nan nan nan nan nan 43 41 40 41 44 46 47 46 44 42 43 43 41 42 43 45 43 41 42 41 42 41 41 40 37 36 31 33 31 28
nan nan nan nan nan nan 29 30 nan nan nan nan nan nan nan nan nan nan nan nan nan nan nan nan nan nan nan nan nan nan nan nan nan nan nan nan nan 37 33 28 33 36 nan nan 40 42 40 41 45 47 45 44 40 41 41 45 44 43 43 40 42 46 41 41 40 41 42 39 38 35 35 34 33 32
nan nan nan nan nan nan nan nan 31 33 nan nan nan nan nan nan nan nan nan nan nan nan nan nan nan nan nan nan nan nan nan nan nan nan nan 24 28 33 38 30 34 38 nan 40 39 39 42 42 42 42 41 40 41 42 43 43 43 43 41 41 42 38 39 40 40 39 38 38 39 39 37 36 34 30
nan nan nan nan 34 nan nan nan nan nan nan nan nan nan nan nan nan nan nan nan nan nan nan nan nan nan nan nan nan nan nan nan nan nan nan 23 26 29 34 43 49 48 43 41 40 38 37 42 42 40 36 37 37 41 46 43 41 41 41 41 40 41 43 37 38 38 39 41 43 41 38 36 34 31
nan nan nan nan nan nan nan nan nan nan nan nan nan nan nan nan nan nan nan nan nan nan nan nan nan nan nan nan nan nan nan nan nan nan nan nan 26 nan nan 44 49 55 56 nan nan 38 40 39 40 37 35 36 37 40 44 44 42 42 40 41 41 40 40 39 37 37 40 41 40 40 39 37 35 33
nan nan nan nan nan nan nan nan nan nan nan nan nan nan nan nan nan nan nan nan nan nan nan nan nan nan nan nan nan nan nan nan nan nan nan nan 27 32 nan 44 48 52 53 52 50 nan 39 40 43 46 45 48 50 48 46 43 41 40 41 42 41 38 41 41 38 37 36 35 37 39 39 37 34 34
nan nan nan nan nan nan nan nan nan nan nan nan nan nan nan nan nan nan nan nan nan nan nan nan nan nan nan nan nan nan nan nan nan nan nan nan nan 32 nan nan nan nan 52 51 50 49 48 38 39 41 45 46 45 47 57 55 43 44 44 42 40 41 41 41 39 37 35 36 37 37 36 36 34 33
nan nan nan nan nan nan nan nan nan nan nan nan nan nan nan nan nan nan nan nan nan nan nan nan nan nan nan nan nan nan nan nan nan nan nan nan nan nan nan nan nan nan nan nan 49 50 50 46 35 35 37 nan 41 41 44 54 56 47 43 41 42 41 43 41 38 37 35 34 34 35 35 33 31 33
nan nan nan nan nan nan nan nan nan nan nan nan nan nan nan nan nan nan nan nan nan nan nan nan nan nan nan nan nan nan nan nan nan nan nan nan nan nan nan nan nan nan nan nan nan 47 49 51 49 37 33 35 35 nan 42 42 51 56 47 43 41 41 42 42 38 33 32 33 32 32 32 33 32 33
nan nan nan nan nan nan nan nan nan nan nan nan nan nan nan nan nan nan nan nan nan nan nan nan nan nan nan nan nan nan nan nan nan nan nan nan nan nan nan nan nan nan nan nan nan nan 44 47 49 51 40 31 34 38 42 nan 46 50 49 41 42 43 43 42 37 32 32 31 30 31 35 33 32 33
nan nan nan nan nan nan nan nan nan nan nan nan nan nan nan nan nan nan nan nan nan nan nan nan nan nan nan nan nan nan nan nan nan nan nan nan nan nan nan nan nan nan nan nan nan nan nan 49 50 48 nan 39 33 41 45 47 nan nan 52 58 46 44 44 41 37 36 32 29 29 34 37 40 44 44
nan nan nan nan nan nan nan nan nan nan nan nan nan nan nan nan nan nan nan nan nan nan nan nan nan nan nan nan nan nan nan nan nan nan nan nan nan nan nan nan nan nan nan nan nan nan nan nan 51 50 47 48 45 47 48 nan nan nan 54 58 60 54 49 46 45 42 36 33 33 32 33 39 39 38
nan nan nan nan nan nan nan nan nan nan nan nan nan nan nan nan nan nan nan nan nan nan nan nan nan nan nan nan nan nan nan nan nan nan nan nan nan nan nan nan nan nan nan nan nan nan nan nan nan nan nan 45 43 38 nan nan nan nan 53 nan nan nan nan nan 53 51 48 43 37 34 34 35 37 38
nan nan nan nan nan nan nan nan nan nan nan nan nan nan nan nan nan nan nan nan nan nan nan nan nan nan nan nan nan nan nan nan nan nan nan nan nan nan nan nan nan nan nan nan nan nan nan nan nan nan nan nan 48 44 nan 48 nan nan nan nan nan nan nan nan nan nan 57 52 46 41 41 42 41 38
nan nan nan nan nan nan nan nan nan nan nan nan nan nan nan nan nan nan nan nan nan nan nan nan nan nan nan nan nan nan nan nan nan nan nan nan nan nan nan nan nan nan nan nan nan nan nan nan nan nan nan nan nan nan nan nan nan nan nan nan nan nan nan nan nan nan nan nan nan nan nan 41 40 38
nan nan nan nan nan nan nan nan nan nan nan nan nan nan nan nan nan nan nan nan nan nan nan nan nan nan nan nan nan nan nan nan nan nan nan nan nan nan nan nan nan nan nan nan nan nan nan nan nan nan nan nan nan nan nan nan nan nan nan nan nan nan nan nan nan nan nan nan 67 66 65 60 53 51
nan nan nan nan nan nan nan nan nan nan nan nan nan nan nan nan nan nan nan nan nan nan nan nan nan nan nan nan nan nan nan nan nan nan nan nan nan nan nan nan nan nan nan nan nan nan nan nan nan nan nan nan nan nan nan nan nan nan nan nan nan nan nan nan nan nan nan nan nan 63 64 66 64 60
Wind_Direction
323 323 323 324 324 323 321 319 319 316 309 303 nan nan nan 280 nan nan nan nan nan nan nan nan nan nan nan nan nan nan nan nan nan 226 228 227 228 227 226 225 226 228 226 226 225 225 225 230 233 234 233 232 232 233 235 237 236 231 227 225 224 222 221 222 223 224 225 227 229 230 232 232 236 234
323 323 323 323 324 323 321 321 319 315 310 nan nan nan nan 286 nan nan nan nan nan nan nan nan nan nan nan nan nan nan nan nan nan nan nan 224 225 225 225 224 226 229 229 228 227 225 227 232 234 235 235 234 233 233 234 237 237 234 231 228 226 224 223 223 225 225 225 225 226 229 230 232 234 235
324 323 324 323 324 323 321 320 317 315 nan nan nan nan nan nan nan nan nan nan nan nan nan nan nan nan nan nan nan nan nan nan nan nan nan nan 220 219 225 224 224 228 231 231 231 229 230 232 232 233 235 234 233 234 234 235 236 237 236 233 230 228 227 226 226 226 227 227 227 229 231 232 234 236
323 324 324 324 324 324 320 318 317 nan nan nan nan nan nan nan nan nan nan nan nan nan nan nan nan nan nan nan nan nan nan nan nan nan nan nan 217 221 226 225 225 227 230 230 231 232 233 232 229 231 234 234 232 233 233 233 234 236 237 237 235 233 232 231 231 230 230 230 231 232 233 234 236 239
325 325 325 325 326 323 320 318 317 nan 313 nan nan nan nan nan nan nan nan nan nan nan nan nan nan nan nan nan nan nan nan nan nan nan nan nan nan 223 226 228 228 229 229 229 228 230 232 232 229 228 231 232 231 231 233 234 233 233 235 237 237 236 235 235 235 235 235 235 235 235 236 236 239 242
325 325 325 326 326 323 321 nan nan nan nan nan nan nan nan nan nan nan nan nan nan nan nan nan nan nan nan nan nan nan nan nan nan nan nan nan nan 223 224 227 228 228 229 229 228 227 228 231 231 228 227 228 230 230 231 233 234 233 233 235 237 237 238 238 238 237 238 238 238 238 238 238 241 244
325 324 nan 327 326 322 319 nan nan nan nan nan nan nan nan nan nan nan nan nan nan nan nan nan nan nan nan nan nan nan nan nan nan nan nan nan nan nan 223 224 227 225 225 226 227 227 226 228 230 228 227 230 234 233 233 235 236 236 234 235 236 239 240 241 240 239 239 240 240 240 241 241 242 245
325 326 326 326 325 322 319 nan nan nan nan nan nan nan nan nan nan nan nan nan nan nan nan nan nan nan nan nan nan nan nan nan nan nan nan nan nan nan nan 222 223 225 222 221 223 224 224 225 226 227 228 232 235 235 235 237 239 240 237 235 236 238 242 244 243 242 240 240 240 241 241 242 243 245
nan 326 326 326 323 321 319 315 nan nan nan nan nan nan nan nan nan nan nan nan nan nan nan nan nan nan nan nan nan nan nan nan nan nan nan nan nan nan nan nan 221 220 222 221 220 222 223 224 224 225 227 232 235 234 235 236 238 240 239 237 236 238 242 245 246 245 243 241 240 240 241 242 243 246
nan nan 327 325 323 320 318 nan nan nan nan nan nan nan nan nan 308 nan nan nan nan nan nan nan nan nan nan nan nan nan nan nan nan nan nan nan nan nan nan nan 220 221 224 226 223 221 221 222 222 222 223 227 232 234 235 237 239 240 240 239 239 240 243 245 247 248 247 245 242 241 241 242 243 245
nan 327 326 324 322 321 nan nan nan nan nan nan nan nan nan nan 309 nan nan 305 nan nan nan nan nan nan nan nan nan nan nan nan nan nan nan nan nan nan nan nan 219 221 220 221 221 223 225 227 227 225 223 223 227 230 233 236 239 241 241 241 241 243 246 247 247 248 248 247 245 nan nan nan nan nan
326 327 326 nan nan nan nan nan nan nan nan nan nan nan nan 311 310 310 307 305 nan nan nan nan nan nan nan nan nan nan nan nan nan nan nan nan nan nan nan nan 217 219 220 219 220 221 220 222 225 223 220 219 221 226 231 235 237 240 242 244 245 246 247 248 248 248 248 248 248 nan nan nan nan nan
325 nan nan nan nan nan 321 nan nan nan nan nan nan nan 313 313 314 312 309 308 nan nan nan nan nan nan nan nan nan nan nan nan nan nan nan nan nan nan nan nan nan 220 219 219 219 220 222 223 225 227 224 223 224 227 234 234 235 237 239 242 244 245 247 249 249 248 247 247 248 248 nan nan nan nan
nan nan nan nan 322 322 322 321 322 321 321 323 320 318 316 317 316 316 314 314 nan nan nan nan nan nan nan nan nan nan nan nan nan nan nan nan nan nan nan nan nan nan 222 219 217 218 221 222 223 226 224 222 227 228 233 235 236 236 241 243 242 242 242 244 246 248 246 246 246 247 247 247 245 nan
nan nan nan 318 316 316 316 315 319 320 321 322 325 328 328 323 320 317 318 317 nan nan nan nan nan nan nan nan nan nan nan nan nan nan nan nan nan nan nan nan nan 224 225 222 217 215 221 223 221 223 222 221 224 226 228 235 235 232 238 244 245 244 245 245 247 247 247 246 245 246 247 247 246 245
nan nan 320 316 312 310 312 312 313 314 317 320 323 326 328 329 328 326 321 318 315 nan nan nan nan nan nan nan nan nan nan nan nan nan nan nan nan nan nan nan nan 220 225 220 217 214 219 224 221 220 220 220 221 224 228 233 232 231 235 241 244 246 246 248 250 252 252 251 248 247 247 247 247 245
315 320 320 316 311 309 313 311 310 309 307 311 320 325 326 325 326 326 328 328 nan nan nan nan nan nan nan nan nan nan nan nan nan nan nan nan nan nan nan nan nan nan 217 217 215 213 218 225 221 218 218 219 220 220 224 229 230 230 235 240 244 247 249 250 253 254 255 254 251 249 249 250 250 248
311 317 318 315 311 309 306 306 nan nan nan nan 310 313 313 314 319 322 325 nan nan nan nan nan nan nan nan nan nan 247 nan nan nan nan nan nan nan nan nan nan nan nan nan nan 212 211 216 224 221 217 217 221 219 219 221 231 233 232 235 240 244 247 250 251 253 255 255 254 252 250 250 251 252 nan
308 312 315 314 314 310 306 306 307 nan nan 306 308 310 312 313 nan nan nan nan nan nan nan nan 326 324 318 311 nan nan nan nan nan nan nan nan nan nan nan nan nan nan nan nan nan nan 213 223 221 215 216 221 220 220 223 233 237 235 235 239 243 248 250 250 252 254 255 254 251 250 250 252 253 nan
306 309 312 313 313 311 308 309 312 nan 307 307 308 310 nan nan nan nan nan nan nan nan nan 321 322 320 320 318 nan nan nan nan nan nan nan nan nan nan nan nan nan nan nan nan nan nan 208 220 219 212 215 220 219 220 223 230 238 236 236 238 242 247 249 250 251 253 254 253 251 250 252 254 nan nan
304 306 308 311 311 308 307 nan nan 309 307 nan nan nan nan nan nan nan nan nan nan nan nan nan nan 333 331 nan nan nan nan nan nan nan nan nan nan nan nan nan nan nan nan nan nan nan nan 215 216 209 213 219 217 218 221 224 231 235 234 236 240 245 247 248 249 251 253 253 nan nan nan nan nan 256
303 305 310 309 308 nan nan nan nan 306 nan nan nan nan nan nan nan nan 305 nan nan nan nan nan nan 324 316 nan nan nan nan nan nan nan nan nan nan nan nan nan nan nan nan nan nan nan nan nan 216 211 213 216 215 216 219 223 227 233 230 233 238 242 246 247 248 250 252 253 nan nan nan nan 257 252
nan nan nan nan nan nan nan nan nan nan nan nan nan nan nan nan nan 305 nan nan nan nan nan nan 308 306 nan nan nan 300 nan nan nan nan nan nan nan nan nan nan nan nan nan nan nan nan nan 214 215 216 212 213 214 218 220 224 227 230 230 229 230 237 243 244 246 248 251 254 256 nan nan nan 257 251
nan nan nan nan nan nan nan nan nan nan nan nan nan nan nan nan 308 nan nan nan nan nan nan nan nan nan nan nan nan nan nan nan nan nan nan nan nan nan nan nan nan nan nan nan nan 216 211 214 214 217 214 214 212 216 223 223 226 228 230 229 230 233 239 238 236 240 245 250 254 256 259 nan nan 252
nan nan nan nan nan nan nan nan nan nan nan nan nan nan nan nan nan nan nan nan nan nan nan nan nan nan nan nan nan nan nan nan nan nan nan nan nan nan nan nan nan nan nan nan 226 218 211 216 215 218 215 213 215 219 219 221 224 227 229 231 230 232 236 234 233 234 236 243 247 253 258 263 268 259
nan nan nan nan nan nan nan nan nan nan nan nan 312 nan nan nan nan nan nan nan nan nan nan nan nan nan nan nan nan nan nan nan nan nan nan nan nan nan nan nan nan nan nan nan 225 217 213 214 217 218 216 215 212 220 222 221 224 226 229 229 229 233 236 235 234 233 236 237 239 243 250 263 265 266
nan nan nan nan nan nan nan nan nan nan nan nan nan nan nan nan nan nan nan nan nan nan nan nan nan nan nan nan nan nan nan nan nan nan nan nan nan nan nan nan nan nan nan nan 219 214 212 211 217 219 217 214 215 219 222 224 223 227 229 229 229 231 232 233 235 236 238 240 237 244 246 254 261 264
nan nan nan nan nan nan nan nan nan nan nan nan nan nan nan nan nan nan nan nan nan nan nan nan nan nan nan nan nan nan nan nan nan nan nan nan nan nan nan nan nan nan nan nan 216 214 210 210 214 216 216 216 216 221 222 221 223 229 229 228 229 231 232 232 233 234 236 237 236 238 241 244 245 249
nan nan nan nan nan nan nan nan nan nan nan nan nan nan nan nan nan nan nan nan nan nan nan nan nan nan nan nan nan nan nan nan nan nan nan nan nan nan nan nan nan nan nan nan 212 213 211 211 214 215 214 215 216 219 225 225 228 228 229 231 228 231 233 232 233 237 238 237 239 242 243 246 247 244
nan nan nan nan nan nan 292 292 nan nan nan nan nan nan nan nan nan nan nan nan nan nan nan nan nan nan nan nan nan nan nan nan nan nan nan nan nan 205 209 229 219 210 nan nan 209 212 211 210 213 214 213 212 216 222 223 226 225 226 228 229 228 230 231 234 233 235 237 235 236 237 235 238 242 247
nan nan nan nan nan nan nan nan 293 293 nan nan nan nan nan nan nan nan nan nan nan nan nan nan nan nan nan nan nan nan nan nan nan nan nan 200 204 205 202 212 216 208 nan 206 208 210 211 209 210 213 210 210 214 217 222 225 226 227 226 228 234 232 234 236 235 236 237 236 236 236 238 238 239 240
nan nan nan nan 289 nan nan nan nan nan nan nan nan nan nan nan nan nan nan nan nan nan nan nan nan nan nan nan nan nan nan nan nan nan nan 196 197 200 201 205 203 200 204 208 209 209 205 206 210 210 209 216 220 219 221 224 225 228 227 229 231 232 236 238 237 235 237 237 236 238 238 239 241 243
nan nan nan nan nan nan nan nan nan nan nan nan nan nan nan nan nan nan nan nan nan nan nan nan nan nan nan nan nan nan nan nan nan nan nan nan 193 nan nan 202 201 202 201 nan nan 211 206 202 206 210 211 213 216 226 228 223 222 226 229 231 232 233 234 238 239 240 240 239 238 238 237 238 239 241
nan nan nan nan nan nan nan nan nan nan nan nan nan nan nan nan nan nan nan nan nan nan nan nan nan nan nan nan nan nan nan nan nan nan nan nan 187 189 nan 198 199 200 203 207 208 nan 206 206 208 210 211 214 215 217 220 224 227 227 229 232 235 234 234 236 238 241 244 243 242 239 238 238 238 240
nan nan nan nan nan nan nan nan nan nan nan nan nan nan nan nan nan nan nan nan nan nan nan nan nan nan nan nan nan nan nan nan nan nan nan nan nan 188 nan nan nan nan 203 205 208 206 202 208 214 213 215 216 219 220 221 217 221 227 229 231 233 235 236 235 237 241 243 241 240 240 237 235 236 238
nan nan nan nan nan nan nan nan nan nan nan nan nan nan nan nan nan nan nan nan nan nan nan nan nan nan nan nan nan nan nan nan nan nan nan nan nan nan nan nan nan nan nan nan 204 204 204 205 213 220 219 nan 222 222 217 217 221 221 229 230 232 233 234 236 236 238 243 244 243 241 241 240 237 239
nan nan nan nan nan nan nan nan nan nan nan nan nan nan nan nan nan nan nan nan nan nan nan nan nan nan nan nan nan nan nan nan nan nan nan nan nan nan nan nan nan nan nan nan nan 204 206 211 212 215 222 222 225 nan 223 220 224 223 222 227 229 233 234 235 237 239 243 246 243 241 239 239 237 238
nan nan nan nan nan nan nan nan nan nan nan nan nan nan nan nan nan nan nan nan nan nan nan nan nan nan nan nan nan nan nan nan nan nan nan nan nan nan nan nan nan nan nan nan nan nan 210 215 218 215 211 223 226 229 228 nan 223 217 216 225 227 228 232 234 236 239 240 240 240 237 235 235 236 239
nan nan nan nan nan nan nan nan nan nan nan nan nan nan nan nan nan nan nan nan nan nan nan nan nan nan nan nan nan nan nan nan nan nan nan nan nan nan nan nan nan nan nan nan nan nan nan 214 215 215 nan 212 227 230 232 233 nan nan 223 224 228 227 226 228 230 232 235 235 234 234 232 228 229 237
nan nan nan nan nan nan nan nan nan nan nan nan nan nan nan nan nan nan nan nan nan nan nan nan nan nan nan nan nan nan nan nan nan nan nan nan nan nan nan nan nan nan nan nan nan nan nan nan 212 213 214 215 222 237 237 nan nan nan 228 224 226 230 226 223 225 229 234 239 242 242 240 237 237 235
nan nan nan nan nan nan nan nan nan nan nan nan nan nan nan nan nan nan nan nan nan nan nan nan nan nan nan nan nan nan nan nan nan nan nan nan nan nan nan nan nan nan nan nan nan nan nan nan nan nan nan 216 217 220 nan nan nan nan 229 nan nan nan nan nan 229 231 232 233 237 243 243 242 242 241
nan nan nan nan nan nan nan nan nan nan nan nan nan nan nan nan nan nan nan nan nan nan nan nan nan nan nan nan nan nan nan nan nan nan nan nan nan nan nan nan nan nan nan nan nan nan nan nan nan nan nan nan 218 223 nan 235 nan nan nan nan nan nan nan nan nan nan 235 233 230 232 236 235 233 238
nan nan nan nan nan nan nan nan nan nan nan nan nan nan nan nan nan nan nan nan nan nan nan nan nan nan nan nan nan nan nan nan nan nan nan nan nan nan nan nan nan nan nan nan nan nan nan nan nan nan nan nan nan nan nan nan nan nan nan nan nan nan nan nan nan nan nan nan nan nan nan 230 237 242
nan nan nan nan nan nan nan nan nan nan nan nan nan nan nan nan nan nan nan nan nan nan nan nan nan nan nan nan nan nan nan nan nan nan nan nan nan nan nan nan nan nan nan nan nan nan nan nan nan nan nan nan nan nan nan nan nan nan nan nan nan nan nan nan nan nan nan nan 228 229 229 231 232 234
nan nan nan nan nan nan nan nan nan nan nan nan nan nan nan nan nan nan nan nan nan nan nan nan nan nan nan nan nan nan nan nan nan nan nan nan nan nan nan nan nan nan nan nan nan nan nan nan nan nan nan nan nan nan nan nan nan nan nan nan nan nan nan nan nan nan nan nan nan 228 233 233 230 231